TimePDT,TemperatureF,Dew PointF,Humidity,Sea Level PressureIn,VisibilityMPH,Wind Direction,Wind SpeedMPH,Gust SpeedMPH,PrecipitationIn,Events,Conditions,WindDirDegrees,DateUTC
12:15 AM,60.8,23.0,23,30.07,10.0,West,9.2,-,N/A,,Clear,270,2013-06-16 07:15:00
12:35 AM,62.6,23.0,22,30.07,10.0,West,9.2,-,N/A,,Clear,270,2013-06-16 07:35:00
12:55 AM,60.8,23.0,23,30.07,10.0,WNW,9.2,-,N/A,,Clear,290,2013-06-16 07:55:00
1:15 AM,60.8,23.0,23,30.06,10.0,WNW,10.4,-,N/A,,Clear,300,2013-06-16 08:15:00
1:35 AM,60.8,24.8,25,30.06,10.0,West,9.2,-,N/A,,Clear,280,2013-06-16 08:35:00
1:55 AM,60.8,24.8,25,30.06,10.0,West,15.0,-,N/A,,Clear,270,2013-06-16 08:55:00
2:15 AM,60.8,26.6,27,30.06,10.0,West,15.0,19.6,N/A,,Clear,270,2013-06-16 09:15:00
2:35 AM,59.0,28.4,31,30.07,10.0,West,11.5,-,N/A,,Clear,280,2013-06-16 09:35:00
2:55 AM,59.0,28.4,31,30.06,10.0,West,15.0,18.4,N/A,,Clear,270,2013-06-16 09:55:00
3:15 AM,59.0,28.4,31,30.06,10.0,West,12.7,17.3,N/A,,Clear,280,2013-06-16 10:15:00
3:35 AM,59.0,28.4,31,30.07,10.0,WNW,13.8,-,N/A,,Clear,290,2013-06-16 10:35:00
3:55 AM,59.0,28.4,31,30.06,10.0,WNW,10.4,-,N/A,,Clear,300,2013-06-16 10:55:00
4:15 AM,57.2,28.4,33,30.07,10.0,WNW,11.5,-,N/A,,Clear,300,2013-06-16 11:15:00
4:35 AM,57.2,30.2,36,30.07,10.0,West,12.7,-,N/A,,Clear,270,2013-06-16 11:35:00
4:55 AM,57.2,30.2,36,30.07,10.0,West,12.7,21.9,N/A,,Clear,270,2013-06-16 11:55:00
5:15 AM,57.2,32.0,38,30.08,10.0,West,9.2,-,N/A,,Clear,280,2013-06-16 12:15:00
5:35 AM,55.4,28.4,36,30.08,10.0,NW,9.2,-,N/A,,Clear,310,2013-06-16 12:35:00
5:55 AM,55.4,28.4,36,30.09,10.0,NW,6.9,-,N/A,,Clear,310,2013-06-16 12:55:00
6:15 AM,55.4,32.0,41,30.09,10.0,WNW,6.9,-,N/A,,Clear,300,2013-06-16 13:15:00
6:35 AM,59.0,39.2,48,30.09,10.0,West,8.1,-,N/A,,Clear,280,2013-06-16 13:35:00
6:55 AM,60.8,37.4,42,30.10,10.0,West,12.7,-,N/A,,Clear,280,2013-06-16 13:55:00
7:15 AM,62.6,37.4,39,30.10,10.0,West,10.4,-,N/A,,Clear,280,2013-06-16 14:15:00
7:35 AM,64.4,35.6,34,30.11,10.0,WNW,10.4,-,N/A,,Clear,300,2013-06-16 14:35:00
7:55 AM,64.4,35.6,34,30.12,10.0,WNW,10.4,-,N/A,,Clear,300,2013-06-16 14:55:00
8:15 AM,66.2,32.0,28,30.12,10.0,NW,8.1,-,N/A,,Clear,310,2013-06-16 15:15:00
8:35 AM,66.2,32.0,28,30.13,10.0,WNW,9.2,-,N/A,,Clear,290,2013-06-16 15:35:00
8:55 AM,66.2,33.8,30,30.14,10.0,WNW,9.2,-,N/A,,Clear,290,2013-06-16 15:55:00
9:15 AM,68.0,33.8,28,30.14,10.0,WNW,9.2,-,N/A,,Clear,290,2013-06-16 16:15:00
9:35 AM,69.8,33.8,27,30.14,10.0,NW,12.7,-,N/A,,Clear,310,2013-06-16 16:35:00
9:55 AM,71.6,32.0,23,30.14,10.0,NW,15.0,19.6,N/A,,Clear,310,2013-06-16 16:55:00
10:15 AM,71.6,33.8,25,30.14,10.0,NW,17.3,23.0,N/A,,Clear,320,2013-06-16 17:15:00
10:35 AM,71.6,33.8,25,30.14,10.0,NW,16.1,21.9,N/A,,Clear,310,2013-06-16 17:35:00
10:55 AM,73.4,32.0,22,30.14,10.0,NW,15.0,23.0,N/A,,Clear,320,2013-06-16 17:55:00
11:15 AM,73.4,33.8,23,30.14,10.0,NW,16.1,21.9,N/A,,Clear,320,2013-06-16 18:15:00
11:35 AM,73.4,33.8,23,30.14,10.0,NW,17.3,23.0,N/A,,Clear,310,2013-06-16 18:35:00
11:55 AM,73.4,32.0,22,30.14,10.0,NW,16.1,23.0,N/A,,Clear,310,2013-06-16 18:55:00
12:15 PM,75.2,32.0,21,30.14,10.0,NW,17.3,23.0,N/A,,Clear,320,2013-06-16 19:15:00
12:35 PM,75.2,30.2,19,30.13,10.0,NW,15.0,26.5,N/A,,Clear,320,2013-06-16 19:35:00
12:55 PM,77.0,28.4,17,30.13,10.0,NW,20.7,24.2,N/A,,Clear,320,2013-06-16 19:55:00
1:15 PM,77.0,26.6,16,30.13,10.0,NW,19.6,28.8,N/A,,Clear,320,2013-06-16 20:15:00
1:35 PM,77.0,28.4,17,30.13,10.0,NW,19.6,25.3,N/A,,Clear,320,2013-06-16 20:35:00
1:55 PM,77.0,28.4,17,30.12,10.0,NW,16.1,27.6,N/A,,Clear,310,2013-06-16 20:55:00
2:15 PM,77.0,32.0,19,30.12,10.0,NW,20.7,27.6,N/A,,Clear,320,2013-06-16 21:15:00
2:35 PM,77.0,32.0,19,30.12,10.0,NW,19.6,27.6,N/A,,Clear,310,2013-06-16 21:35:00
2:55 PM,77.0,32.0,19,30.12,10.0,NW,21.9,28.8,N/A,,Clear,310,2013-06-16 21:55:00
3:15 PM,77.0,32.0,19,30.12,10.0,NW,21.9,27.6,N/A,,Clear,310,2013-06-16 22:15:00
3:35 PM,75.2,32.0,21,30.12,10.0,NW,20.7,28.8,N/A,,Clear,320,2013-06-16 22:35:00
3:55 PM,77.0,32.0,19,30.12,10.0,NW,21.9,28.8,N/A,,Clear,320,2013-06-16 22:55:00
4:15 PM,75.2,32.0,21,30.12,10.0,NW,21.9,28.8,N/A,,Clear,310,2013-06-16 23:15:00
4:35 PM,75.2,32.0,21,30.11,10.0,NW,23.0,29.9,N/A,,Clear,320,2013-06-16 23:35:00
4:55 PM,75.2,32.0,21,30.11,10.0,NW,21.9,28.8,N/A,,Clear,320,2013-06-16 23:55:00
5:15 PM,75.2,32.0,21,30.11,10.0,NW,21.9,27.6,N/A,,Clear,320,2013-06-17 00:15:00
5:35 PM,75.2,32.0,21,30.11,10.0,NW,20.7,26.5,N/A,,Clear,320,2013-06-17 00:35:00
5:55 PM,75.2,30.2,19,30.11,10.0,NW,20.7,27.6,N/A,,Clear,310,2013-06-17 00:55:00
6:15 PM,73.4,28.4,19,30.11,10.0,NW,21.9,27.6,N/A,,Clear,310,2013-06-17 01:15:00
6:35 PM,73.4,28.4,19,30.12,10.0,NW,20.7,27.6,N/A,,Clear,310,2013-06-17 01:35:00
6:55 PM,71.6,26.6,19,30.12,10.0,NW,21.9,32.2,N/A,,Clear,310,2013-06-17 01:55:00
7:15 PM,71.6,28.4,20,30.12,10.0,WNW,20.7,26.5,N/A,,Clear,300,2013-06-17 02:15:00
7:35 PM,71.6,26.6,19,30.12,10.0,WNW,16.1,24.2,N/A,,Clear,290,2013-06-17 02:35:00
7:55 PM,68.0,32.0,26,30.12,10.0,West,12.7,-,N/A,,Clear,280,2013-06-17 02:55:00
8:15 PM,68.0,30.2,24,30.13,10.0,West,15.0,-,N/A,,Clear,280,2013-06-17 03:15:00
8:35 PM,66.2,32.0,28,30.12,10.0,West,13.8,-,N/A,,Clear,280,2013-06-17 03:35:00
8:55 PM,66.2,32.0,28,30.13,10.0,West,12.7,20.7,N/A,,Clear,270,2013-06-17 03:55:00
9:15 PM,66.2,32.0,28,30.13,10.0,West,15.0,-,N/A,,Clear,280,2013-06-17 04:15:00
9:35 PM,66.2,32.0,28,30.14,10.0,WNW,17.3,20.7,N/A,,Clear,290,2013-06-17 04:35:00
9:55 PM,64.4,32.0,30,30.14,10.0,West,15.0,20.7,N/A,,Clear,280,2013-06-17 04:55:00
10:15 PM,64.4,32.0,30,30.15,10.0,WNW,11.5,-,N/A,,Clear,290,2013-06-17 05:15:00
10:35 PM,64.4,32.0,30,30.15,10.0,West,12.7,16.1,N/A,,Clear,280,2013-06-17 05:35:00
10:55 PM,62.6,32.0,32,30.15,10.0,West,13.8,-,N/A,,Clear,280,2013-06-17 05:55:00
11:15 PM,62.6,32.0,32,30.15,10.0,West,13.8,-,N/A,,Clear,280,2013-06-17 06:15:00
11:35 PM,62.6,32.0,32,30.15,10.0,WNW,13.8,-,N/A,,Clear,290,2013-06-17 06:35:00
11:55 PM,62.6,35.6,37,30.14,10.0,West,16.1,-,N/A,,Clear,270,2013-06-17 06:55:00